When you browse on this site, cookies collect data to enhance your experience and personalize the content and advertising you see.
Visit our Privacy Policy to learn more. By continuing to use the site, you agree to this use of cookies and data.
  • En España
  • Lista de países
  • Para 7 días
  • Temperatura del agua
  • El tiempo en el mapa
  • Informadores
  • user-avatar
    Iniciar sesión

    Tiempo cada hora Spasskoe-Shlykovo

    Hoy, 24 Enero, Viernes

    Tiempo Temperatura Precipitaciones Viento Presión Humedad
    00:00 -9°C° 0 mm 3 mps 741 mmHg 88%
    01:00 -9°C° 0 mm 3 mps 741 mmHg 89%
    02:00 -9°C° 0 mm 3 mps 741 mmHg 89%
    03:00 -9°C° 0 mm 3 mps 740 mmHg 88%
    04:00 -10°C° 0 mm 4 mps 740 mmHg 87%
    05:00 -10°C° 0 mm 4 mps 740 mmHg 86%
    06:00 -9°C° 0 mm 4 mps 739 mmHg 88%
    07:00 -10°C° 0 mm 5 mps 739 mmHg 90%
    08:00 -8°C° 0 mm 5 mps 738 mmHg 92%
    09:00 -8°C° 0.1 mm 6 mps 738 mmHg 92%
    10:00 -7°C° 0.1 mm 7 mps 737 mmHg 92%
    11:00 -6°C° 0.1 mm 7 mps 737 mmHg 92%
    12:00 -6°C° 0.2 mm 7 mps 736 mmHg 91%
    13:00 -4°C° 0.2 mm 7 mps 735 mmHg 91%
    14:00 -4°C° 0 mm 7 mps 735 mmHg 89%
    15:00 -4°C° 0.1 mm 7 mps 734 mmHg 91%
    16:00 -3°C° 0.1 mm 7 mps 734 mmHg 94%
    17:00 -3°C° 0.1 mm 7 mps 733 mmHg 96%
    18:00 -3°C° 0.2 mm 7 mps 733 mmHg 96%
    19:00 -2°C° 0.2 mm 7 mps 733 mmHg 96%
    20:00 -2°C° 0.2 mm 7 mps 732 mmHg 97%
    21:00 -2°C° 0.5 mm 7 mps 732 mmHg 96%
    22:00 -1°C° 0.5 mm 7 mps 732 mmHg 96%
    23:00 -1°C° 0.5 mm 7 mps 731 mmHg 96%

    Mañana, 25 Enero, Sábado

    Tiempo Temperatura Precipitaciones Viento Presión Humedad
    00:00 -1°C° 0.1 mm 7 mps 731 mmHg 96%
    01:00 -1°C° 0.1 mm 6 mps 731 mmHg 96%
    02:00 -1°C° 0.1 mm 6 mps 731 mmHg 96%
    03:00 -1°C° 0.1 mm 6 mps 731 mmHg 95%
    04:00 -1°C° 0.1 mm 6 mps 731 mmHg 94%
    05:00 -2°C° 0.1 mm 6 mps 731 mmHg 93%
    06:00 -2°C° 0.1 mm 6 mps 731 mmHg 93%
    07:00 -2°C° 0.1 mm 6 mps 731 mmHg 93%
    08:00 -1°C° 0.1 mm 5 mps 732 mmHg 94%
    09:00 -2°C° 0 mm 6 mps 731 mmHg 94%
    10:00 -2°C° 0 mm 6 mps 731 mmHg 94%
    11:00 -2°C° 0 mm 6 mps 731 mmHg 94%
    12:00 -1°C° 0.1 mm 6 mps 731 mmHg 93%
    13:00 -1°C° 0.1 mm 7 mps 730 mmHg 92%
    14:00 -1°C° 0.1 mm 7 mps 730 mmHg 91%
    15:00 -2°C° 0.1 mm 7 mps 730 mmHg 89%
    16:00 -2°C° 0.1 mm 7 mps 730 mmHg 87%
    17:00 -2°C° 0.1 mm 7 mps 730 mmHg 85%
    18:00 -3°C° 0.2 mm 7 mps 731 mmHg 83%
    19:00 -3°C° 0.2 mm 7 mps 731 mmHg 81%
    20:00 -4°C° 0.2 mm 6 mps 732 mmHg 78%
    21:00 -5°C° 0 mm 6 mps 732 mmHg 78%
    22:00 -5°C° 0 mm 6 mps 732 mmHg 77%
    23:00 -5°C° 0 mm 6 mps 733 mmHg 77%

    Pasado mañana, 26 Enero, Domingo

    Tiempo Temperatura Precipitaciones Viento Presión Humedad
    00:00 -6°C° 0 mm 7 mps 734 mmHg 78%
    01:00 -6°C° 0 mm 7 mps 734 mmHg 78%
    02:00 -7°C° 0 mm 7 mps 735 mmHg 79%
    03:00 -7°C° 0 mm 7 mps 736 mmHg 79%
    04:00 -6°C° 0 mm 6 mps 736 mmHg 80%
    05:00 -6°C° 0 mm 6 mps 737 mmHg 80%
    06:00 -6°C° 0 mm 5 mps 738 mmHg 81%
    07:00 -6°C° 0 mm 5 mps 739 mmHg 82%
    08:00 -6°C° 0 mm 5 mps 739 mmHg 83%
    09:00 -6°C° 0 mm 5 mps 740 mmHg 82%
    10:00 -5°C° 0 mm 5 mps 741 mmHg 81%
    11:00 -5°C° 0 mm 5 mps 741 mmHg 80%
    12:00 -5°C° 0 mm 5 mps 741 mmHg 81%
    13:00 -5°C° 0 mm 5 mps 741 mmHg 81%
    14:00 -5°C° 0 mm 5 mps 741 mmHg 82%
    15:00 -5°C° 0 mm 5 mps 741 mmHg 82%
    16:00 -5°C° 0 mm 5 mps 741 mmHg 82%
    17:00 -5°C° 0 mm 5 mps 741 mmHg 82%
    18:00 -5°C° 0 mm 6 mps 740 mmHg 81%
    19:00 -5°C° 0 mm 6 mps 740 mmHg 81%
    20:00 -4°C° 0 mm 7 mps 740 mmHg 80%
    21:00 -4°C° 0.2 mm 7 mps 740 mmHg 85%
    22:00 -4°C° 0.2 mm 7 mps 740 mmHg 89%
    23:00 -4°C° 0.2 mm 7 mps 740 mmHg 93%

    27 Enero, Lunes

    Tiempo Temperatura Precipitaciones Viento Presión Humedad
    00:00 -3°C° 0 mm 7 mps 739 mmHg 93%
    01:00 -3°C° 0 mm 7 mps 739 mmHg 93%
    02:00 -3°C° 0 mm 6 mps 739 mmHg 93%
    03:00 -3°C° 0 mm 6 mps 739 mmHg 93%
    04:00 -3°C° 0 mm 7 mps 739 mmHg 93%
    05:00 -3°C° 0 mm 7 mps 739 mmHg 93%
    06:00 -3°C° 0 mm 6 mps 739 mmHg 93%
    07:00 -2°C° 0 mm 5 mps 740 mmHg 93%
    08:00 -2°C° 0 mm 5 mps 740 mmHg 93%
    09:00 -2°C° 0 mm 5 mps 740 mmHg 95%
    10:00 -1°C° 0 mm 4 mps 740 mmHg 96%
    11:00 -1°C° 0 mm 4 mps 741 mmHg 97%
    12:00 -1°C° 0 mm 4 mps 741 mmHg 98%
    13:00 -1°C° 0 mm 4 mps 741 mmHg 98%
    14:00 -1°C° 0 mm 4 mps 741 mmHg 98%
    15:00 -1°C° 0 mm 4 mps 741 mmHg 98%
    16:00 0°C° 0 mm 3 mps 741 mmHg 98%
    17:00 0°C° 0 mm 3 mps 741 mmHg 97%
    18:00 0°C° 0 mm 3 mps 741 mmHg 98%
    19:00 0°C° 0 mm 3 mps 741 mmHg 98%
    20:00 +1°C° 0 mm 2 mps 741 mmHg 98%
    21:00 +1°C° 0 mm 2 mps 741 mmHg 98%
    22:00 0°C° 0 mm 3 mps 741 mmHg 98%
    23:00 0°C° 0 mm 3 mps 741 mmHg 98%

    28 Enero, Martes

    Tiempo Temperatura Precipitaciones Viento Presión Humedad
    00:00 0°C° 0.2 mm 3 mps 740 mmHg 98%
    01:00 0°C° 0.2 mm 3 mps 740 mmHg 98%
    02:00 0°C° 0.2 mm 3 mps 740 mmHg 98%
    03:00 -1°C° 0.1 mm 3 mps 740 mmHg 98%
    04:00 -2°C° 0.1 mm 4 mps 739 mmHg 98%
    05:00 -2°C° 0.1 mm 4 mps 739 mmHg 97%
    06:00 -2°C° 0.2 mm 4 mps 739 mmHg 97%
    07:00 -2°C° 0.2 mm 4 mps 739 mmHg 97%
    08:00 -2°C° 0.2 mm 4 mps 739 mmHg 97%
    09:00 -2°C° 0.2 mm 4 mps 738 mmHg 98%
    10:00 -2°C° 0.2 mm 4 mps 738 mmHg 98%
    11:00 0°C° 0.2 mm 3 mps 738 mmHg 99%
    12:00 0°C° 0 mm 3 mps 738 mmHg 99%
    13:00 0°C° 0 mm 3 mps 738 mmHg 99%
    14:00 0°C° 0 mm 3 mps 738 mmHg 99%
    15:00 0°C° 0 mm 3 mps 738 mmHg 98%
    16:00 0°C° 0 mm 3 mps 738 mmHg 98%
    17:00 0°C° 0 mm 3 mps 738 mmHg 98%
    18:00 0°C° 0.1 mm 3 mps 738 mmHg 98%
    19:00 0°C° 0.1 mm 3 mps 738 mmHg 98%
    20:00 0°C° 0.1 mm 3 mps 738 mmHg 98%
    21:00 0°C° 0 mm 3 mps 738 mmHg 98%
    22:00 +1°C° 0 mm 2 mps 738 mmHg 98%
    23:00 +1°C° 0 mm 2 mps 738 mmHg 98%

    29 Enero, Miércoles

    Tiempo Temperatura Precipitaciones Viento Presión Humedad
    00:00 0°C° 0 mm 3 mps 738 mmHg 98%
    01:00 0°C° 0 mm 3 mps 738 mmHg 98%
    02:00 0°C° 0 mm 3 mps 738 mmHg 98%
    03:00 -1°C° 0 mm 3 mps 737 mmHg 98%
    04:00 -1°C° 0 mm 3 mps 737 mmHg 98%
    05:00 -1°C° 0 mm 3 mps 737 mmHg 97%
    06:00 -1°C° 0 mm 3 mps 737 mmHg 97%
    07:00 -1°C° 0 mm 3 mps 737 mmHg 97%
    08:00 -1°C° 0 mm 3 mps 737 mmHg 97%
    09:00 0°C° 0 mm 3 mps 737 mmHg 97%
    10:00 -1°C° 0 mm 4 mps 736 mmHg 98%
    11:00 -1°C° 0 mm 4 mps 736 mmHg 98%
    12:00 -1°C° 0 mm 4 mps 736 mmHg 98%
    13:00 -1°C° 0 mm 4 mps 735 mmHg 98%
    14:00 -1°C° 0 mm 4 mps 734 mmHg 98%
    15:00 0°C° 0 mm 5 mps 734 mmHg 97%
    16:00 0°C° 0 mm 5 mps 734 mmHg 96%
    17:00 -1°C° 0 mm 6 mps 733 mmHg 95%
    18:00 -1°C° 0.1 mm 6 mps 733 mmHg 96%
    19:00 -1°C° 0.1 mm 6 mps 732 mmHg 96%
    20:00 -2°C° 0.1 mm 6 mps 732 mmHg 97%
    21:00 -1°C° 0.5 mm 6 mps 731 mmHg 97%
    22:00 -1°C° 0.5 mm 6 mps 731 mmHg 97%
    23:00 -1°C° 0.5 mm 6 mps 730 mmHg 97%
    Mostrar más